This is the latest recevied weather packets stored in our database for station/object KC1IUC-13. If no packets are shown the sender has not sent any weather packets the latest 10 day(s).
| Time | Temp. | Humidity | Pressure | Rain* | Wind** | Luminosity | Snow |
|---|---|---|---|---|---|---|---|
| 1777651203 | 15.56° C | 63% | 1007.6 hPa | 0 mm | - | 620 W/m² | - |
| 1777650843 | 15° C | 62% | 1008 hPa | 0 mm | - | 306 W/m² | - |
| 1777650303 | 15.56° C | 64% | 1008 hPa | 0 mm | - | 578 W/m² | - |
| 1777649763 | 15° C | 65% | 1008.3 hPa | 0 mm | - | 147 W/m² | - |
| 1777649223 | 15° C | 66% | 1008 hPa | 0 mm | - | 124 W/m² | - |
| 1777648683 | 14.44° C | 67% | 1008.3 hPa | 0 mm | - | 86 W/m² | - |
| 1777648143 | 14.44° C | 67% | 1008.3 hPa | 0 mm | - | 66 W/m² | - |
| 1777647603 | 13.89° C | 68% | 1008 hPa | 0 mm | - | 75 W/m² | - |
| 1777647243 | 13.33° C | 69% | 1008.3 hPa | 0 mm | - | 205 W/m² | - |
| 1777646703 | 13.33° C | 69% | 1008.3 hPa | 0 mm | - | 91 W/m² | - |
| 1777646163 | 13.33° C | 70% | 1008.3 hPa | 0 mm | - | 55 W/m² | - |
| 1777645623 | 13.33° C | 70% | 1008.3 hPa | 0 mm | - | 252 W/m² | - |
| 1777645083 | 13.33° C | 72% | 1008.3 hPa | 0 mm | - | 76 W/m² | - |
| 1777644543 | 13.33° C | 73% | 1008.7 hPa | 0 mm | - | 51 W/m² | - |
| 1777643643 | 13.33° C | 75% | 1008.3 hPa | 0 mm | - | 54 W/m² | - |
| 1777643103 | 13.33° C | 75% | 1008.3 hPa | 0 mm | - | 334 W/m² | - |
| 1777642563 | 13.33° C | 76% | 1008.3 hPa | 0 mm | - | 226 W/m² | - |
| 1777642023 | 13.33° C | 78% | 1008.3 hPa | 0 mm | - | 238 W/m² | - |
| 1777641483 | 12.22° C | 79% | 1008.7 hPa | 0 mm | - | 288 W/m² | - |
| 1777640943 | 11.11° C | 79% | 1008.7 hPa | 0 mm | - | 373 W/m² | - |
| 1777640402 | 10.56° C | 79% | 1008.3 hPa | 0 mm | - | 51 W/m² | - |
| 1777640043 | 11.11° C | 80% | 1008.3 hPa | 0 mm | - | 149 W/m² | - |
| 1777639503 | 10.56° C | 81% | 1008.3 hPa | 0 mm | - | 44 W/m² | - |
| 1777638963 | 10° C | 82% | 1008.3 hPa | 0 mm | - | 91 W/m² | - |
| 1777638423 | 10° C | 82% | 1008.7 hPa | 0 mm | - | 53 W/m² | - |
* Rain latest hour (hover to see other rain measurements)
** Current wind speed in m/s (hover to see current wind gust speed)